Weather History for Smithfield, NC

Change the Weather History Date:

Tuesday, May 14, 2013

  Actual Average Record
Temperature  
Mean Temperature 53 °F -  
Max Temperature 69 °F 81 °F 94 °F (1956)
Min Temperature 37 °F 54 °F 37 °F (2013)
Degree Days  
Heating Degree Days 12    
Growing Degree Days 3 (Base 50)    
Moisture  
Dew Point 39 °F    
Average Humidity 61    
Maximum Humidity 100    
Minimum Humidity 26    
Precipitation  
Precipitation 0.00 in - - ()
Sea Level Pressure  
Sea Level Pressure 30.18 in    
Wind  
Wind Speed 1 mph (West)    
Max Wind Speed 7 mph    
Max Gust Speed -    
Visibility 10 miles    
Events      
Averages and records for this station are not official NWS values.
T = Trace of Precipitation, MM = Missing Value Source: NWS Daily Summary

Daily Weather History Graph

Daily Weather History Graph

Search for Another Location

Airport:

Trip Planner

Search our weather history database for the weather conditions in past years. The results will help you decide how hot, cold, wet, or windy it might be!

Date:

Astronomy

May. 14, 2013 Rise Set
Actual Time 6:09 AM EDT 8:10 PM EDT
Civil Twilight 5:41 AM EDT 8:39 PM EDT
Nautical Twilight 5:06 AM EDT 9:13 PM EDT
Astronomical Twilight 4:29 AM EDT 9:50 PM EDT
Moon 9:47 AM EDT (5/14) 11:58 PM EDT (5/14)
Length of Visible Light 14h 58m
Length of Day
14h 01m
Waxing Crescent, 19% of the Moon is Illuminated
May 14
Waxing Crescent
May 18
First Quarter
May 25
Full
May 31
Last Quarter
Jun 8
New

Hourly Weather History & Observations

Time (EDT) Temp. Dew Point Humidity Pressure Visibility Wind Dir Wind Speed Gust Speed Precip Events Conditions
12:15 AM 48.2 °F 44.6 °F 87% 30.18 in 10.0 mi Calm Calm - N/A   Overcast
12:35 AM 50.0 °F 42.8 °F 76% 30.19 in 10.0 mi NNE 3.5 mph - N/A   Overcast
12:55 AM 51.8 °F 41.0 °F 67% 30.19 in 10.0 mi NNE 6.9 mph - N/A   Overcast
1:15 AM 51.8 °F 41.0 °F 67% 30.19 in 10.0 mi NNE 3.5 mph - N/A   Overcast
1:35 AM 50.0 °F 41.0 °F 71% 30.19 in 10.0 mi Calm Calm - N/A   Mostly Cloudy
1:55 AM 46.4 °F 41.0 °F 81% 30.19 in 10.0 mi Calm Calm - N/A   Clear
2:15 AM 44.6 °F 41.0 °F 87% 30.19 in 10.0 mi Calm Calm - N/A   Clear
2:35 AM 44.6 °F 41.0 °F 87% 30.18 in 10.0 mi Calm Calm - N/A   Clear
2:55 AM 42.8 °F 41.0 °F 93% 30.19 in 10.0 mi Calm Calm - N/A   Clear
3:15 AM 42.8 °F 42.8 °F 100% 30.19 in 10.0 mi Calm Calm - N/A   Clear
3:35 AM 41.0 °F 41.0 °F 100% 30.20 in 10.0 mi Calm Calm - N/A   Clear
3:55 AM 41.0 °F 41.0 °F 100% 30.20 in 10.0 mi Calm Calm - N/A   Clear
4:15 AM 41.0 °F 41.0 °F 100% 30.20 in 10.0 mi Calm Calm - N/A   Clear
4:35 AM 41.0 °F 41.0 °F 100% 30.20 in 10.0 mi Calm Calm - N/A   Clear
4:55 AM 39.2 °F 39.2 °F 100% 30.20 in 10.0 mi Calm Calm - N/A   Clear
5:15 AM 39.2 °F 39.2 °F 100% 30.21 in 10.0 mi Calm Calm - N/A   Clear
5:35 AM 39.2 °F 39.2 °F 100% 30.21 in 10.0 mi Calm Calm - N/A   Clear
5:55 AM 37.4 °F 37.4 °F 100% 30.22 in 10.0 mi Calm Calm - N/A   Clear
6:15 AM 37.4 °F 37.4 °F 100% 30.23 in 10.0 mi Calm Calm - N/A   Clear
6:35 AM 39.2 °F 39.2 °F 100% 30.23 in 10.0 mi Calm Calm - N/A   Clear
6:55 AM 41.0 °F 41.0 °F 100% 30.24 in 10.0 mi Calm Calm - N/A   Clear
7:15 AM 42.8 °F 42.8 °F 100% 30.24 in 10.0 mi Calm Calm - N/A   Clear
7:35 AM 44.6 °F 42.8 °F 93% 30.25 in 10.0 mi Calm Calm - N/A   Clear
7:55 AM 50.0 °F 41.0 °F 71% 30.25 in 10.0 mi Calm Calm - N/A   Clear
8:15 AM 53.6 °F 39.2 °F 58% 30.25 in 10.0 mi Calm Calm - N/A   Clear
8:35 AM 53.6 °F 37.4 °F 54% 30.26 in 10.0 mi Calm Calm - N/A   Clear
8:55 AM 55.4 °F 37.4 °F 51% 30.26 in 10.0 mi NE 3.5 mph - N/A   Clear
9:15 AM 57.2 °F 33.8 °F 41% 30.26 in 10.0 mi Calm Calm - N/A   Clear
9:35 AM 57.2 °F 35.6 °F 44% 30.26 in 10.0 mi Calm Calm - N/A   Clear
9:55 AM 59.0 °F 32.0 °F 36% 30.25 in 10.0 mi Calm Calm - N/A   Clear
10:15 AM 60.8 °F 32.0 °F 34% 30.26 in 10.0 mi Calm Calm - N/A   Clear
10:35 AM 60.8 °F 32.0 °F 34% 30.26 in 10.0 mi Calm Calm - N/A   Clear
10:55 AM 60.8 °F 32.0 °F 34% 30.27 in 10.0 mi Calm Calm - N/A   Clear
11:15 AM 60.8 °F 32.0 °F 34% 30.27 in 10.0 mi WSW 3.5 mph - N/A   Clear
11:35 AM 62.6 °F 32.0 °F 32% 30.26 in 10.0 mi WSW 4.6 mph - N/A   Clear
11:55 AM 62.6 °F 32.0 °F 32% 30.25 in 10.0 mi Calm Calm - N/A   Clear
12:15 PM 62.6 °F 33.8 °F 34% 30.24 in 10.0 mi Calm Calm - N/A   Clear
12:35 PM 64.4 °F 32.0 °F 30% 30.24 in 10.0 mi WNW 4.6 mph - N/A   Clear
12:55 PM 64.4 °F 33.8 °F 32% 30.22 in 10.0 mi West 4.6 mph - N/A   Clear
1:15 PM 64.4 °F 32.0 °F 30% 30.21 in 10.0 mi WNW 4.6 mph - N/A   Clear
1:35 PM 66.2 °F 33.8 °F 30% 30.19 in 10.0 mi West 5.8 mph - N/A   Clear
1:55 PM 66.2 °F 33.8 °F 30% 30.19 in 10.0 mi WSW 3.5 mph - N/A   Clear
2:15 PM 68.0 °F 33.8 °F 28% 30.18 in 10.0 mi WSW 5.8 mph - N/A   Clear
2:35 PM 68.0 °F 32.0 °F 26% 30.18 in 10.0 mi Calm Calm - N/A   Clear
2:55 PM 68.0 °F 33.8 °F 28% 30.18 in 10.0 mi Calm Calm - N/A   Clear
3:15 PM 68.0 °F 33.8 °F 28% 30.16 in 10.0 mi Calm Calm - N/A   Clear
3:35 PM 69.8 °F 33.8 °F 27% 30.15 in 10.0 mi NW 3.5 mph - N/A   Clear
3:55 PM 69.8 °F 33.8 °F 27% 30.14 in 10.0 mi WNW 3.5 mph - N/A   Clear
4:15 PM 69.8 °F 33.8 °F 27% 30.14 in 10.0 mi WSW 5.8 mph - N/A   Clear
4:35 PM 69.8 °F 35.6 °F 28% 30.14 in 10.0 mi West 3.5 mph - N/A   Clear
4:55 PM 68.0 °F 33.8 °F 28% 30.14 in 10.0 mi WSW 3.5 mph - N/A   Clear
5:15 PM 69.8 °F 33.8 °F 27% 30.14 in 10.0 mi Calm Calm - N/A   Clear
5:35 PM 69.8 °F 35.6 °F 28% 30.13 in 10.0 mi WSW 3.5 mph - N/A   Scattered Clouds
5:55 PM 68.0 °F 35.6 °F 30% 30.12 in 10.0 mi SW 3.5 mph - N/A   Scattered Clouds
6:15 PM 68.0 °F 37.4 °F 33% 30.12 in 10.0 mi Calm Calm - N/A   Mostly Cloudy
6:35 PM 68.0 °F 37.4 °F 33% 30.11 in 10.0 mi Calm Calm - N/A   Scattered Clouds
6:55 PM 68.0 °F 42.8 °F 40% 30.11 in 10.0 mi Calm Calm - N/A   Mostly Cloudy
7:15 PM 66.2 °F 41.0 °F 40% 30.11 in 10.0 mi Calm Calm - N/A   Mostly Cloudy
7:35 PM 64.4 °F 44.6 °F 49% 30.11 in 10.0 mi Calm Calm - N/A   Scattered Clouds
7:55 PM 60.8 °F 48.2 °F 63% 30.10 in 10.0 mi Calm Calm - N/A   Scattered Clouds
8:15 PM 59.0 °F 48.2 °F 67% 30.11 in 10.0 mi Calm Calm - N/A   Clear
8:35 PM 57.2 °F 48.2 °F 72% 30.11 in 10.0 mi Calm Calm - N/A   Clear
8:55 PM 55.4 °F 48.2 °F 77% 30.11 in 10.0 mi Calm Calm - N/A   Clear
9:15 PM 55.4 °F 48.2 °F 77% 30.11 in 10.0 mi Calm Calm - N/A   Clear
9:35 PM 53.6 °F 46.4 °F 77% 30.11 in 10.0 mi Calm Calm - N/A   Clear
9:55 PM 51.8 °F 46.4 °F 82% 30.12 in 10.0 mi Calm Calm - N/A   Clear
10:15 PM 51.8 °F 46.4 °F 82% 30.11 in 10.0 mi Calm Calm - N/A   Clear
10:35 PM 51.8 °F 48.2 °F 88% 30.11 in 10.0 mi Calm Calm - N/A   Clear
10:55 PM 51.8 °F 46.4 °F 82% 30.11 in 10.0 mi Calm Calm - N/A   Clear
11:15 PM 51.8 °F 46.4 °F 82% 30.10 in 10.0 mi Calm Calm - N/A   Clear
11:35 PM 53.6 °F 44.6 °F 72% 30.09 in 10.0 mi South 3.5 mph - N/A   Clear
11:55 PM 55.4 °F 44.6 °F 67% 30.11 in 10.0 mi Calm Calm - N/A   Clear